This is the latest recevied weather packets stored in our database for station/object KC8PTQ. If no packets are shown the sender has not sent any weather packets the latest 10 day(s).
| Time | Temp. | Humidity | Pressure | Rain* | Wind** | Luminosity | Snow |
|---|---|---|---|---|---|---|---|
| 1778212299 | 8.89° C | 71% | 1014.7 hPa | 0 mm | - | 0 W/m² | - |
| 1778211996 | 8.89° C | 74% | 1014.9 hPa | 0 mm | - | 0 W/m² | - |
| 1778211693 | 8.89° C | 71% | 1014.9 hPa | 0 mm | - | 0 W/m² | - |
| 1778211390 | 8.89° C | 70% | 1014.9 hPa | 0 mm | - | 0 W/m² | - |
| 1778211089 | 9.44° C | 68% | 1014.9 hPa | 0 mm | - | 0 W/m² | - |
| 1778210784 | 8.89° C | 67% | 1014.9 hPa | 0 mm | - | 0 W/m² | - |
| 1778210482 | 9.44° C | 68% | 1014.7 hPa | 0 mm | - | 0 W/m² | - |
| 1778210179 | 9.44° C | 67% | 1014.9 hPa | 0 mm | - | 0 W/m² | - |
| 1778209875 | 9.44° C | 67% | 1014.9 hPa | 0 mm | - | 0 W/m² | - |
| 1778209572 | 9.44° C | 65% | 1015.1 hPa | 0 mm | - | 0 W/m² | - |
| 1778209270 | 10° C | 63% | 1015.1 hPa | 0 mm | - | 0 W/m² | - |
| 1778208965 | 10° C | 63% | 1014.9 hPa | 0 mm | - | 0 W/m² | - |
| 1778208663 | 10° C | 61% | 1015 hPa | 0 mm | - | 0 W/m² | - |
| 1778208359 | 10° C | 62% | 1015.2 hPa | 0 mm | - | 0 W/m² | - |
| 1778208056 | 10° C | 62% | 1015 hPa | 0 mm | - | 0 W/m² | - |
| 1778207752 | 10° C | 62% | 1015 hPa | 0 mm | - | 0 W/m² | - |
| 1778207450 | 10° C | 61% | 1015 hPa | 0 mm | - | 0 W/m² | - |
| 1778207145 | 10° C | 58% | 1015 hPa | 0 mm | - | 0 W/m² | - |
| 1778206843 | 9.44° C | 61% | 1014.9 hPa | 0 mm | - | 0 W/m² | - |
| 1778206538 | 9.44° C | 62% | 1014.9 hPa | 0 mm | - | 0 W/m² | - |
| 1778206234 | 8.89° C | 61% | 1014.7 hPa | 0 mm | - | 0 W/m² | - |
| 1778205932 | 8.33° C | 69% | 1014.8 hPa | 0 mm | - | 0 W/m² | - |
| 1778205630 | 8.33° C | 71% | 1014.7 hPa | 0 mm | - | 0 W/m² | - |
| 1778205327 | 8.33° C | 72% | 1014.6 hPa | 0 mm | - | 0 W/m² | - |
| 1778205024 | 8.33° C | 73% | 1014.5 hPa | 0 mm | - | 0 W/m² | - |
* Rain latest hour (hover to see other rain measurements)
** Current wind speed in m/s (hover to see current wind gust speed)